This demonstration page uses our WeatherBlox Daily Observations layout. Learn more.

39.92423, -83.80882

Hourly Observations for December 10, 2018

Temp ( °F °C ) Dew Point ( °F °C ) Humidity (%) Winds ( mph kmh ) Pressure ( in mb ) Visibility ( mi km ) Precip ( " mm )
12:56 am 00:56 Clear 19 -7.2 17 -8.3 92 92 NNW 6 9 30.25 1024 10 16.0934 0 0
1:56 am 01:56 Clear 19 -7.2 17 -8.3 92 92 N 5 7 30.24 1024 9 14.48406 0 0
2:56 am 02:56 Clear 19 -7.2 17 -8.3 92 92 Calm 30.25 1025 7 11.26538 0 0
3:56 am 03:56 Clear with Mist and Fog 18 -7.8 17 -8.3 96 96 Calm 30.26 1025 6 9.65604 0 0
4:56 am 04:56 Clear with Mist and Fog 17 -8.3 16 -8.9 95 95 N 5 7 30.25 1025 5 8.0467 0 0
5:56 am 05:56 Clear with Mist and Fog 15 -9.4 14 -10 95 95 NNW 5 7 30.26 1025 5 8.0467 0 0
6:56 am 06:56 Clear with Mist and Fog 15 -9.4 14 -10 95 95 N 5 7 30.27 1025 5 8.0467 0 0
7:56 am 07:56 Sunny with Mist and Fog 15 -9.4 14 -10 95 95 N 3 6 30.29 1026 3 4.82802 0 0
8:08 am 08:08 Mostly Cloudy with Mist and Fog 16 -9 14 -10 93 93 NNW 6 9 30.36 1028 2.5 4.02335 0 0
8:11 am 08:11 Mostly Cloudy with Mist and Fog 16 -9 16 -9 100 100 N 6 9 30.36 1028 1 1.60934 0 0
8:13 am 08:13 Mostly Cloudy with Freezing Fog 16 -9 16 -9 100 100 N 6 9 30.36 1028 0.5 0.80467 0 0
8:21 am 08:21 Mostly Cloudy with Freezing Fog 18 -8 18 -8 100 100 N 3 6 30.33 1027 0.25 0.402335 0 0
8:35 am 08:35 Cloudy with Mist and Fog 19 -7 19 -7 100 100 N 5 7 30.33 1027 0.75 1.207005 0 0
8:38 am 08:38 Cloudy with Mist and Fog 19 -7 19 -7 100 100 N 5 7 30.33 1027 1.25 2.011675 0 0
8:49 am 08:49 Cloudy with Mist and Fog 19 -7 19 -7 100 100 NNE 5 7 30.33 1027 2 3.21868 0 0
8:56 am 08:56 Cloudy with Mist and Fog 21 -6.1 20 -6.7 96 96 NNE 6 9 30.3 1026 2.5 4.02335 0 0
9:15 am 09:15 Cloudy with Mist and Fog 21 -6 21 -6 100 100 NNE 6 9 30.33 1027 2.5 4.02335 0 0
9:33 am 09:33 Cloudy with Mist and Fog 23 -5 21 -6 93 93 NNE 8 13 30.33 1027 3 4.82802 0 0
9:56 am 09:56 Cloudy with Mist and Fog 23 -5 23 -5 100 100 NE 8 13 30.31 1027 3 4.82802 0 0
10:03 am 10:03 Cloudy with Mist and Fog 23 -5 23 -5 100 100 NNE 7 11 30.36 1028 2.5 4.02335 0 0
10:37 am 10:37 Cloudy with Mist and Fog 25 -4 23 -5 93 93 NNE 7 11 30.36 1028 3 4.82802 0 0
10:56 am 10:56 Cloudy with Mist and Fog 24 -4.4 23 -5 96 96 NE 7 11 30.32 1027 3 4.82802 0 0
11:56 am 11:56 Cloudy with Mist and Fog 24 -4.4 22 -5.6 91 91 Calm 30.31 1026 4 6.43736 0 0
12:10 pm 12:10 Cloudy with Mist and Fog 25 -4 23 -5 93 93 E 3 6 30.33 1027 4 6.43736 0 0
12:56 pm 12:56 Cloudy with Mist and Fog 26 -3.3 23 -5 88 88 VRB 5 7 30.29 1026 5 8.0467 0 0
1:56 pm 13:56 Cloudy with Mist and Fog 26 -3.3 22 -5.6 84 84 W 7 11 30.28 1025 6 9.65604 0 0
2:56 pm 14:56 Cloudy with Mist and Fog 25 -3.9 22 -5.6 88 88 VRB 3 6 30.27 1025 5 8.0467 0 0
3:56 pm 15:56 Cloudy with Mist and Fog 24 -4.4 21 -6.1 88 88 WSW 5 7 30.28 1025 6 9.65604 0 0
4:56 pm 16:56 Cloudy with Mist and Fog 24 -4.4 21 -6.1 88 88 NW 5 7 30.29 1026 5 8.0467 0 0
5:56 pm 17:56 Cloudy with Mist and Fog 23 -5 21 -6.1 92 92 W 6 9 30.29 1026 6 9.65604 0 0
6:56 pm 18:56 Cloudy with Mist and Fog 23 -5 21 -6.1 92 92 WSW 3 6 30.29 1026 5 8.0467 0 0
7:56 pm 19:56 Cloudy with Mist and Fog 23 -5 21 -6.1 92 92 W 5 7 30.3 1026 4 6.43736 0 0
8:56 pm 20:56 Cloudy with Mist and Fog 22 -5.6 20 -6.7 92 92 WSW 6 9 30.28 1026 4 6.43736 0 0
9:56 pm 21:56 Cloudy with Mist and Fog 22 -5.6 20 -6.7 92 92 SW 7 11 30.26 1025 3 4.82802 0 0
10:56 pm 22:56 Cloudy with Mist and Fog 21 -6.1 20 -6.7 96 96 SSW 8 13 30.26 1025 3 4.82802 0 0
11:56 pm 23:56 Cloudy with Mist and Fog 21 -6.1 19 -7.2 92 92 WSW 8 13 30.26 1025 3 4.82802 0 0

Powered by AerisWeather